Temperature
15 15 15 15 15 14 14 14 13 13 12 11 11 10 10 10 10 9 9 9 9 8 8 8 8 7 7 7 7 7 7 7 6 6 6 7 8 8 7 7 7 7 7
14 14 14 14 14 14 14 13 13 13 12 12 11 11 10 10 10 10 9 9 9 9 8 8 8 7 7 7 7 6 6 6 6 5 5 4 5 5 5 6 6 6 6
15 14 14 14 14 14 14 13 13 13 12 12 11 11 10 10 10 10 9 9 9 8 8 8 7 7 7 7 6 6 6 6 6 5 4 3 3 3 4 4 5 4 4
14 14 14 13 13 13 13 13 13 13 12 12 11 11 11 10 10 9 9 9 8 8 7 7 7 7 6 6 6 6 6 5 5 5 4 4 3 2 2 3 3 3 3
14 14 14 13 13 13 13 13 12 12 12 12 11 11 11 10 10 9 8 8 8 7 7 7 7 6 6 6 6 6 5 5 5 4 4 3 3 2 1 1 2 2 3
13 13 13 13 12 12 12 12 12 12 12 11 11 11 10 10 9 9 8 8 7 7 7 6 6 6 6 6 5 5 5 5 4 4 3 3 2 2 1 0 0 0 1
13 13 13 12 12 12 12 12 11 11 11 11 11 10 10 10 9 9 8 8 7 7 7 6 6 6 6 5 5 5 5 4 4 3 3 2 2 1 1 -0 -1 -1 -1
13 13 13 13 12 12 12 11 11 11 11 11 10 10 10 9 9 8 8 7 7 7 6 6 6 5 5 5 5 4 4 4 3 3 2 2 1 1 0 -1 -2 -2 -2
13 13 13 13 12 12 11 11 11 11 10 10 10 10 9 9 8 8 7 7 6 6 6 5 5 5 5 5 4 4 4 3 3 2 2 1 1 0 -0 -1 -2 -3 -4
13 13 13 13 12 12 11 11 10 10 10 10 9 9 9 8 8 7 7 6 6 6 5 5 5 5 5 4 4 3 3 2 2 1 1 0 0 -1 -1 -2 -2 -3 -4
13 13 13 13 12 12 11 10 10 10 9 9 9 9 8 8 7 7 6 6 5 5 5 5 5 4 4 4 3 3 2 1 1 1 0 -0 -1 -2 -2 -3 -3 -4 -4
14 14 13 12 12 11 11 10 10 9 9 9 8 8 7 7 7 6 6 5 5 5 4 4 4 4 3 3 2 2 1 1 0 -0 -1 -1 -2 -2 -3 -3 -4 -4 -5
14 13 13 12 12 11 10 10 9 9 9 8 8 7 7 6 6 6 5 5 4 4 4 4 3 3 2 2 1 1 0 -0 -1 -1 -2 -2 -3 -3 -3 -4 -4 -5 -5
14 13 13 12 11 11 10 10 9 9 8 8 7 7 6 6 5 5 5 4 4 4 3 3 2 2 2 1 1 0 -0 -1 -2 -2 -3 -3 -3 -4 -4 -5 -5 -5 -5
14 13 13 12 11 10 10 9 9 8 8 7 7 6 6 5 5 4 4 4 3 3 2 2 2 1 1 0 -0 -1 -2 -2 -2 -3 -3 -3 -4 -4 -5 -5 -5 -5 -5
14 13 13 12 11 10 9 9 8 8 7 6 6 5 5 5 4 4 3 3 3 2 2 1 1 1 0 -0 -1 -2 -2 -3 -3 -3 -4 -4 -4 -5 -5 -5 -5 -5 -5
13 13 12 11 11 10 9 8 8 7 6 6 5 5 4 4 4 3 3 3 2 2 1 1 0 0 -0 -1 -1 -2 -3 -3 -3 -4 -4 -5 -5 -5 -5 -5 -5 -5 -5
13 12 11 11 10 9 8 8 7 6 6 5 5 4 4 4 3 3 2 2 1 1 1 0 -0 -0 -1 -1 -2 -3 -3 -4 -4 -4 -5 -5 -5 -5 -6 -6 -6 -6 -5
12 12 11 10 9 8 8 7 6 6 5 5 4 4 3 3 3 2 2 1 1 0 0 -0 -1 -1 -1 -2 -2 -3 -4 -4 -5 -5 -5 -6 -6 -6 -6 -6 -6 -6 -6
11 10 10 9 8 8 7 6 6 5 5 4 4 3 3 2 2 2 1 1 0 -0 -1 -1 -1 -2 -2 -2 -3 -4 -5 -5 -5 -5 -6 -6 -6 -6 -6 -6 -6 -6 -6
10 9 9 8 7 7 6 6 5 5 4 4 3 3 2 2 1 1 0 0 -0 -1 -1 -1 -1 -2 -2 -3 -4 -5 -5 -6 -6 -6 -6 -6 -6 -6 -6 -6 -6 -6 -6
9 8 7 7 6 6 5 5 4 4 3 3 3 2 2 1 1 0 -0 -0 -1 -1 -1 -2 -2 -2 -3 -4 -4 -5 -6 -6 -6 -6 -6 -6 -6 -6 -6 -6 -6 -6 -6
8 7 7 6 6 5 4 4 4 3 3 2 2 2 1 1 0 -0 -1 -1 -1 -2 -2 -3 -3 -3 -4 -4 -5 -6 -6 -6 -6 -7 -7 -7 -7 -7 -7 -7 -7 -7 -7
7 6 6 5 5 4 4 3 3 2 2 2 2 1 1 0 -0 -1 -1 -2 -2 -3 -3 -4 -5 -5 -5 -5 -6 -6 -6 -6 -7 -7 -7 -7 -7 -7 -7 -7 -7 -7 -7
6 5 5 4 4 3 3 3 2 2 1 1 1 0 -0 -1 -1 -1 -2 -2 -3 -4 -5 -5 -6 -6 -6 -6 -6 -6 -7 -7 -7 -7 -7 -7 -7 -8 -8 -8 -8 -8 -8
5 4 4 3 3 3 3 2 2 1 1 0 0 -0 -1 -1 -2 -2 -2 -3 -4 -4 -5 -6 -6 -6 -7 -7 -7 -7 -7 -7 -7 -7 -8 -8 -8 -8 -8 -8 -8 -8 -8
Wind_Speed
4 4 5 6 7 7 8 8 8 7 7 4 4 4 3 2 2 2 2 2 1 1 1 1 1 1 1 2 2 2 3 3 2 3 5 6 6 6 6 6 6 9 13
6 5 5 5 6 6 7 8 8 7 7 5 4 3 3 2 1 1 1 1 1 1 2 1 1 0 1 2 3 2 2 3 1 1 4 5 5 4 4 5 5 6 8
11 8 7 6 6 7 7 7 8 8 7 6 5 5 4 3 2 2 1 2 1 1 1 2 1 0 0 2 3 2 2 3 3 2 2 3 5 5 5 5 5 5 5
9 9 8 7 7 6 6 7 7 7 7 7 6 6 4 3 2 1 0 2 3 1 0 1 1 0 1 2 3 2 2 3 4 3 3 5 5 4 6 4 4 7 8
12 11 9 8 7 6 6 7 7 7 6 6 7 7 4 3 2 1 2 2 3 3 2 0 0 1 2 3 4 4 3 3 4 4 4 4 4 6 7 9 7 5 6
11 10 9 8 6 6 6 7 8 6 6 7 7 7 7 5 4 2 1 1 2 2 3 2 2 3 3 4 4 4 5 4 5 5 4 4 5 5 6 9 11 11 7
12 12 11 10 9 8 8 7 8 6 6 7 6 6 7 6 5 3 1 0 1 2 3 2 3 3 5 6 6 4 5 5 6 6 6 6 7 6 7 9 13 13 8
13 13 13 12 10 10 9 8 8 7 6 6 6 5 6 4 3 3 2 2 2 3 3 4 5 6 7 7 5 4 6 5 6 7 7 6 6 6 6 6 10 15 10
14 14 13 12 12 11 10 9 9 7 7 7 6 5 5 4 3 2 1 1 2 2 4 4 5 6 7 7 5 5 7 6 6 7 8 6 6 6 6 6 6 8 16
13 13 13 13 12 11 9 9 9 8 7 7 6 5 4 4 3 2 1 2 3 3 4 5 5 6 6 6 6 6 7 7 7 7 8 8 7 6 6 6 6 7 11
16 15 13 12 11 10 9 9 9 7 7 7 5 5 4 3 2 1 2 3 3 3 5 6 6 7 8 7 7 8 8 9 9 9 9 9 9 7 7 7 7 8 9
14 13 12 11 11 11 10 10 9 8 7 6 6 5 3 2 1 2 3 3 4 4 5 6 7 8 8 8 8 9 9 9 10 10 10 11 10 9 8 8 9 9 10
11 10 11 12 13 12 11 10 9 8 7 6 6 4 3 2 3 4 4 5 5 6 6 6 8 8 9 9 9 9 10 10 10 11 11 11 10 11 10 9 10 10 12
11 11 12 11 11 11 11 10 9 8 7 6 6 4 4 4 5 5 5 6 6 7 8 8 8 9 9 9 10 10 10 10 11 11 11 11 11 12 11 11 11 11 12
10 12 12 11 10 10 9 9 8 7 7 6 5 5 5 4 5 5 6 7 7 8 8 9 9 9 9 9 10 9 10 10 10 10 10 11 14 18 16 14 11 10 11
10 10 11 12 12 12 10 9 8 7 6 6 5 4 4 5 6 7 7 7 8 8 8 9 10 10 10 17 21 17 10 9 9 10 10 11 14 18 23 26 26 22 16
8 10 11 12 12 11 10 10 8 6 6 5 4 4 5 5 7 7 7 8 8 8 9 10 10 11 13 21 23 23 14 10 9 10 10 11 12 19 11 19 24 23 26
8 9 9 9 8 8 8 8 7 6 5 4 4 4 5 6 7 7 8 9 8 8 9 10 11 11 13 22 23 24 14 9 10 10 11 12 12 13 15 14 13 13 15
6 7 8 8 8 8 8 8 6 5 4 4 5 5 6 7 7 8 9 8 8 9 9 9 10 11 13 21 23 24 10 9 10 10 11 12 12 21 26 18 14 15 14
6 7 8 7 8 7 7 7 5 4 4 5 6 6 6 7 8 9 9 8 8 9 9 10 9 11 12 19 22 23 9 9 10 9 10 18 20 25 27 17 14 17 14
7 8 9 8 7 6 7 6 4 5 5 5 5 6 6 7 8 8 7 8 8 9 9 10 10 10 13 17 21 22 11 9 10 9 8 9 23 27 28 24 15 19 19
7 8 8 6 5 5 6 4 4 5 4 5 6 7 7 7 6 7 8 8 8 9 10 10 11 8 10 15 18 23 23 21 13 11 9 12 25 27 27 21 20 26 21
7 5 7 6 3 3 4 4 4 4 4 5 6 7 7 7 7 7 9 8 8 8 9 9 11 10 7 10 21 24 24 25 16 12 20 25 27 25 17 20 24 19 9
5 5 6 5 3 2 3 4 4 4 4 6 7 7 7 8 7 6 7 7 8 8 9 10 11 11 9 8 8 9 12 17 15 13 17 23 21 17 17 17 13 8 8
4 4 5 4 3 3 3 4 4 4 5 7 7 7 7 7 8 7 7 9 8 10 12 10 10 11 12 14 22 19 12 11 12 15 10 6 7 7 8 8 8 7 7
4 4 3 3 3 3 5 5 5 4 5 7 7 6 6 7 7 8 10 14 15 21 22 21 20 16 20 26 27 27 27 27 25 17 8 9 9 10 9 9 9 7 7
Wind_Direction
160 108 89 96 100 105 115 122 123 128 129 124 123 118 114 96 81 101 116 115 143 192 187 219 277 303 277 279 288 293 300 295 298 318 310 295 286 283 276 277 283 288 292
156 132 111 102 110 120 120 120 124 127 128 129 130 128 125 112 96 47 51 59 151 175 169 173 202 290 304 311 309 299 298 293 311 303 324 324 325 329 294 282 276 278 295
166 156 139 127 124 131 136 132 130 127 124 123 112 91 74 57 40 21 353 342 329 200 179 178 175 204 216 282 290 279 256 282 297 191 219 291 289 302 286 282 275 289 294
164 158 153 149 148 151 140 130 129 126 126 126 128 133 139 151 186 191 322 350 13 16 87 159 154 198 257 280 284 271 244 245 280 281 228 228 245 277 301 292 280 279 279
168 163 161 158 153 149 142 135 127 124 125 123 129 127 127 142 130 89 55 17 6 10 4 358 1 309 293 284 287 291 271 238 248 257 259 261 255 233 257 288 289 283 259
167 159 153 145 143 144 141 139 135 133 132 129 132 136 140 140 127 105 69 9 349 347 351 338 315 301 292 284 282 278 277 264 260 260 253 253 260 264 259 279 293 292 283
167 163 161 161 160 160 159 154 148 146 144 138 140 145 147 146 149 155 161 225 319 308 303 313 300 293 289 289 288 281 280 273 269 266 263 257 255 260 269 283 295 295 290
175 174 174 171 169 170 168 164 161 158 156 149 148 148 147 146 157 169 180 212 238 259 277 295 297 297 299 298 294 284 279 275 271 273 270 268 266 262 262 271 295 303 298
182 180 178 176 174 174 176 173 168 163 163 159 153 153 154 154 165 175 188 237 259 268 290 301 302 303 302 297 293 282 282 281 273 270 270 266 263 260 258 257 261 283 301
187 185 183 182 180 177 173 170 168 168 166 163 163 160 162 166 169 171 243 275 284 290 303 304 301 299 297 294 289 284 279 279 276 270 269 268 266 260 256 253 254 252 278
192 191 188 184 178 170 167 168 168 162 163 164 159 154 163 167 166 204 260 274 281 291 295 295 296 296 294 292 289 284 283 280 280 279 276 272 270 266 262 257 257 259 265
196 191 183 175 174 172 170 169 169 167 169 166 160 165 171 173 201 254 269 272 279 281 282 287 291 291 291 290 287 286 287 282 281 280 279 277 278 269 266 263 262 266 265
193 184 178 180 180 176 172 169 170 170 168 163 163 170 187 208 238 257 268 273 276 283 285 285 286 286 287 286 284 280 280 277 275 275 274 275 274 275 272 267 268 270 275
192 186 185 183 179 174 171 169 171 170 167 165 169 187 212 227 242 255 265 270 272 278 281 281 279 280 281 281 281 279 276 273 271 269 268 268 266 269 273 275 270 271 273
192 189 186 180 173 169 169 168 170 170 166 168 183 210 227 238 250 261 268 272 274 274 275 279 281 281 282 277 277 274 269 268 270 269 265 265 273 279 284 286 280 277 278
198 190 180 174 174 172 169 166 169 171 165 175 201 223 238 251 259 265 270 274 276 276 276 276 277 280 284 295 303 303 289 278 274 276 272 272 279 286 292 294 295 292 288
194 185 180 178 174 170 165 168 169 163 166 185 212 232 244 258 265 270 274 275 276 275 277 277 276 276 281 296 303 305 304 288 278 276 277 284 285 294 284 288 290 288 287
190 180 169 161 157 154 153 152 152 158 171 197 228 244 251 262 271 275 275 275 273 274 276 278 278 278 285 300 306 308 304 285 276 272 273 277 278 278 286 280 277 273 275
172 162 155 148 143 147 148 143 149 158 180 219 241 251 254 263 272 275 276 277 278 278 277 277 278 280 288 301 307 307 294 284 277 273 272 278 278 286 295 295 288 285 281
132 132 129 125 133 142 139 140 155 173 215 236 248 256 257 261 268 272 276 277 277 279 283 283 280 279 282 296 305 307 293 287 284 277 272 284 290 294 297 294 289 290 289
124 124 123 128 140 143 137 147 170 212 234 247 259 265 266 266 269 273 275 281 283 286 287 288 285 279 283 297 303 306 302 289 288 287 281 277 294 297 298 298 293 291 295
123 125 124 127 136 142 143 164 212 236 250 260 268 272 274 276 280 278 282 283 286 290 292 293 293 283 282 293 300 305 305 304 299 293 286 286 296 299 302 304 299 300 304
134 128 132 133 142 155 158 193 237 252 263 270 273 276 279 277 276 278 285 290 288 288 294 294 296 295 283 286 300 305 305 304 302 292 296 300 303 306 305 300 301 303 300
140 133 136 146 172 195 205 226 252 262 265 272 277 279 281 284 283 279 278 283 285 287 291 292 295 296 294 285 283 283 293 299 299 295 295 300 302 302 299 299 298 289 280
144 145 155 175 205 229 250 258 265 271 274 276 278 281 278 280 286 282 275 281 271 276 290 291 290 297 300 297 305 308 305 301 295 304 299 295 295 293 290 286 283 278 280
147 151 168 196 229 251 268 276 277 272 273 280 281 279 280 283 284 290 295 289 289 294 296 297 297 297 297 303 308 310 310 310 310 312 305 301 297 295 293 292 291 285 282
Height
1521 1522 1522 1524 1526 1528 1531 1533 1535 1538 1540 1542 1544 1546 1547 1548 1548 1549 1549 1548 1548 1547 1547 1546 1545 1544 1543 1542 1540 1538 1537 1535 1533 1529 1525 1523 1521 1519 1518 1518 1518 1517 1515
1519 1520 1521 1523 1525 1527 1529 1532 1534 1536 1538 1540 1542 1544 1545 1546 1546 1546 1546 1546 1545 1544 1544 1543 1542 1541 1540 1538 1537 1535 1533 1532 1530 1527 1522 1517 1514 1512 1513 1512 1511 1510 1509
1515 1517 1520 1522 1524 1526 1528 1531 1533 1535 1537 1539 1541 1542 1543 1544 1544 1544 1544 1544 1543 1542 1541 1540 1539 1538 1537 1536 1534 1532 1530 1528 1527 1525 1523 1519 1512 1508 1503 1503 1503 1503 1502
1514 1516 1518 1520 1523 1526 1528 1530 1532 1534 1536 1538 1539 1541 1541 1542 1542 1542 1542 1541 1541 1540 1539 1538 1537 1536 1534 1533 1531 1530 1527 1525 1523 1522 1520 1518 1514 1508 1499 1496 1497 1496 1494
1511 1514 1517 1520 1522 1525 1527 1530 1532 1534 1535 1537 1539 1540 1540 1541 1540 1540 1540 1539 1539 1538 1537 1536 1535 1533 1532 1530 1528 1526 1524 1522 1519 1517 1515 1512 1509 1506 1500 1490 1486 1485 1484
1510 1513 1516 1519 1522 1524 1527 1529 1531 1533 1535 1536 1537 1538 1539 1539 1539 1538 1538 1537 1536 1535 1534 1533 1532 1530 1529 1526 1524 1522 1520 1517 1515 1512 1509 1507 1503 1499 1495 1487 1480 1475 1474
1507 1510 1514 1517 1520 1523 1525 1528 1530 1532 1534 1535 1536 1537 1537 1537 1536 1536 1535 1535 1534 1533 1532 1530 1529 1527 1525 1522 1520 1517 1515 1512 1509 1506 1504 1501 1497 1494 1490 1483 1474 1467 1463
1505 1508 1511 1515 1518 1521 1524 1526 1529 1531 1532 1533 1534 1535 1535 1535 1534 1533 1533 1532 1531 1530 1529 1527 1525 1523 1520 1518 1515 1512 1509 1506 1503 1500 1497 1493 1490 1487 1483 1478 1471 1460 1452
1502 1506 1509 1513 1516 1519 1522 1525 1527 1529 1530 1532 1532 1533 1533 1532 1532 1531 1530 1529 1528 1527 1525 1523 1521 1518 1516 1513 1509 1506 1503 1500 1496 1493 1489 1486 1482 1479 1476 1472 1468 1461 1447
1500 1503 1507 1510 1513 1517 1520 1523 1525 1527 1528 1529 1530 1530 1530 1530 1529 1528 1527 1526 1525 1523 1521 1519 1516 1513 1510 1507 1503 1500 1496 1492 1489 1485 1481 1478 1474 1471 1468 1464 1461 1456 1448
1496 1499 1503 1507 1511 1514 1517 1520 1522 1524 1526 1527 1527 1528 1527 1527 1526 1525 1524 1523 1521 1519 1517 1514 1511 1508 1504 1501 1497 1493 1489 1485 1481 1478 1474 1470 1467 1463 1459 1455 1451 1447 1442
1493 1496 1500 1504 1507 1510 1513 1516 1519 1521 1523 1524 1525 1525 1524 1524 1523 1522 1521 1519 1517 1515 1512 1509 1505 1502 1498 1494 1490 1486 1482 1478 1474 1470 1466 1462 1458 1454 1451 1446 1442 1438 1434
1491 1494 1497 1500 1503 1506 1509 1513 1515 1518 1520 1521 1521 1521 1521 1520 1520 1519 1517 1515 1512 1510 1507 1503 1500 1496 1492 1488 1483 1479 1474 1470 1466 1462 1458 1454 1450 1445 1441 1437 1433 1429 1425
1487 1490 1492 1495 1499 1503 1506 1509 1512 1515 1516 1517 1518 1518 1518 1517 1516 1514 1513 1510 1508 1505 1501 1497 1494 1489 1485 1481 1476 1471 1467 1462 1458 1455 1451 1446 1442 1437 1433 1428 1424 1420 1416
1484 1486 1488 1491 1495 1499 1503 1506 1509 1511 1512 1513 1514 1514 1514 1513 1511 1510 1508 1505 1502 1499 1495 1491 1487 1483 1478 1473 1468 1463 1459 1454 1450 1446 1442 1438 1434 1429 1426 1422 1417 1413 1409
1480 1482 1485 1488 1492 1495 1499 1503 1505 1508 1509 1510 1510 1510 1509 1508 1506 1505 1502 1499 1496 1492 1489 1484 1480 1475 1471 1466 1462 1457 1451 1447 1442 1437 1433 1429 1425 1421 1417 1413 1410 1406 1402
1478 1480 1482 1485 1488 1493 1497 1500 1502 1504 1505 1506 1506 1506 1505 1503 1501 1499 1496 1493 1489 1485 1481 1477 1473 1468 1463 1459 1454 1449 1444 1439 1434 1429 1424 1420 1416 1412 1407 1402 1398 1395 1393
1476 1478 1480 1483 1487 1491 1494 1497 1499 1501 1501 1502 1502 1501 1499 1498 1495 1493 1490 1486 1482 1478 1473 1469 1464 1459 1455 1451 1446 1440 1435 1429 1425 1421 1416 1411 1406 1402 1398 1393 1388 1384 1381
1475 1476 1479 1482 1485 1489 1492 1494 1496 1497 1497 1497 1497 1496 1494 1492 1489 1486 1483 1479 1474 1470 1465 1461 1456 1451 1446 1442 1437 1431 1425 1420 1415 1411 1407 1403 1398 1394 1390 1386 1380 1375 1371
1474 1476 1478 1481 1484 1487 1489 1491 1492 1493 1493 1493 1492 1490 1488 1486 1483 1479 1475 1471 1467 1462 1457 1452 1448 1443 1437 1433 1428 1423 1417 1411 1406 1402 1398 1395 1390 1386 1382 1377 1372 1366 1361
1473 1476 1478 1480 1483 1485 1487 1488 1488 1489 1489 1488 1487 1485 1483 1480 1476 1472 1468 1464 1459 1453 1448 1443 1439 1434 1429 1424 1419 1415 1410 1404 1398 1393 1389 1385 1381 1377 1373 1369 1364 1358 1354
1473 1475 1477 1479 1481 1483 1484 1484 1485 1485 1484 1483 1481 1479 1476 1473 1469 1465 1460 1456 1451 1445 1439 1434 1428 1424 1420 1416 1411 1406 1403 1398 1392 1385 1380 1376 1372 1368 1364 1360 1355 1351 1347
1472 1474 1476 1478 1479 1480 1481 1481 1481 1480 1479 1477 1475 1472 1469 1466 1462 1457 1452 1447 1443 1437 1431 1425 1419 1414 1410 1407 1403 1398 1393 1389 1384 1378 1373 1368 1364 1359 1354 1350 1346 1343 1338
1471 1473 1474 1476 1476 1477 1478 1477 1477 1475 1473 1471 1468 1465 1461 1458 1454 1450 1445 1440 1434 1429 1423 1418 1412 1406 1401 1397 1393 1389 1384 1380 1375 1369 1364 1359 1355 1351 1346 1342 1338 1335 1331
1469 1471 1472 1473 1474 1474 1474 1473 1472 1469 1467 1464 1461 1458 1454 1450 1445 1441 1437 1432 1427 1423 1417 1411 1406 1400 1394 1390 1387 1383 1377 1372 1367 1361 1356 1351 1346 1342 1338 1334 1331 1328 1325
1467 1469 1470 1470 1471 1470 1470 1469 1466 1464 1460 1457 1454 1450 1446 1441 1437 1432 1426 1422 1419 1414 1409 1405 1400 1394 1389 1383 1379 1374 1370 1364 1360 1354 1348 1343 1339 1335 1331 1327 1324 1321 1319